Time,TemperatureF,DewpointF,PressureIn,WindDirection,WindDirectionDegrees,WindSpeedMPH,WindSpeedGustMPH,Humidity,HourlyPrecipIn,Conditions,Clouds,dailyrainin,SoftwareType,DateUTC
2013-10-28 00:00:00,58.7,57.3,29.98,NE,49,1.0,1.0,95,0.00,,,0.01,Wunderground v.1.15,2013-10-28 05:00:00,
2013-10-28 00:10:00,59.0,57.6,29.97,NE,49,0.0,20.0,95,0.00,,,0.01,Wunderground v.1.15,2013-10-28 05:10:00,
2013-10-28 00:20:00,59.3,57.9,29.98,NE,49,2.0,20.0,95,0.00,,,0.00,Wunderground v.1.15,2013-10-28 05:20:00,
2013-10-28 00:30:00,59.5,58.1,29.97,NE,49,1.0,20.0,95,0.00,,,0.00,Wunderground v.1.15,2013-10-28 05:30:00,
2013-10-28 00:40:00,59.6,57.9,29.97,NE,49,2.0,2.0,94,0.00,,,0.00,Wunderground v.1.15,2013-10-28 05:40:00,
2013-10-28 00:50:00,59.8,58.1,29.97,NE,49,2.0,20.0,94,0.00,,,0.00,Wunderground v.1.15,2013-10-28 05:50:00,
2013-10-28 01:00:00,60.0,58.3,29.97,NE,49,3.0,20.0,94,0.00,,,0.00,Wunderground v.1.15,2013-10-28 06:00:00,
2013-10-28 01:10:00,60.1,58.4,29.97,NE,49,2.0,20.0,94,0.00,,,0.00,Wunderground v.1.15,2013-10-28 06:10:00,
2013-10-28 01:20:00,60.3,58.6,29.97,ENE,59,4.0,4.0,94,0.00,,,0.00,Wunderground v.1.15,2013-10-28 06:20:00,
2013-10-28 01:30:00,60.5,58.5,29.96,ENE,61,4.0,4.0,93,0.00,,,0.00,Wunderground v.1.15,2013-10-28 06:30:00,
2013-10-28 01:40:00,60.5,58.5,29.96,ENE,63,3.0,20.0,93,0.00,,,0.00,Wunderground v.1.15,2013-10-28 06:40:00,
2013-10-28 01:50:00,60.5,58.5,29.95,ENE,65,3.0,20.0,93,0.00,,,0.00,Wunderground v.1.15,2013-10-28 06:50:00,
2013-10-28 02:00:00,60.8,58.8,29.96,ENE,70,4.0,20.0,93,0.00,,,0.00,Wunderground v.1.15,2013-10-28 07:00:00,
2013-10-28 02:10:00,61.1,59.1,29.96,East,82,4.0,20.0,93,0.00,,,0.00,Wunderground v.1.15,2013-10-28 07:10:00,
2013-10-28 02:30:00,61.4,59.1,29.96,East,89,4.0,4.0,92,0.00,,,0.00,Wunderground v.1.15,2013-10-28 07:30:00,
2013-10-28 02:40:00,61.5,59.2,29.96,East,89,4.0,20.0,92,0.00,,,0.00,Wunderground v.1.15,2013-10-28 07:40:00,
2013-10-28 02:50:00,61.6,59.6,29.96,East,90,4.0,20.0,93,0.00,,,0.00,Wunderground v.1.15,2013-10-28 07:50:00,
2013-10-28 03:00:00,61.7,59.4,29.96,East,90,4.0,20.0,92,0.00,,,0.00,Wunderground v.1.15,2013-10-28 08:00:00,
2013-10-28 03:10:00,61.7,59.7,29.96,East,90,3.0,20.0,93,0.00,,,0.00,Wunderground v.1.15,2013-10-28 08:10:00,
2013-10-28 03:20:00,61.6,59.6,29.96,East,90,3.0,20.0,93,0.00,,,0.00,Wunderground v.1.15,2013-10-28 08:20:00,
2013-10-28 03:30:00,61.6,59.6,29.95,East,90,3.0,20.0,93,0.00,,,0.00,Wunderground v.1.15,2013-10-28 08:30:00,
2013-10-28 03:40:00,61.6,59.6,29.95,East,90,2.0,20.0,93,0.00,,,0.00,Wunderground v.1.15,2013-10-28 08:40:00,
2013-10-28 03:50:00,61.6,59.6,29.95,East,90,3.0,20.0,93,0.00,,,0.00,Wunderground v.1.15,2013-10-28 08:50:00,
2013-10-28 04:00:00,61.6,59.9,29.95,East,90,2.0,2.0,94,0.00,,,0.00,Wunderground v.1.15,2013-10-28 09:00:00,
2013-10-28 04:10:00,61.7,60.0,29.95,East,90,3.0,20.0,94,0.00,,,0.00,Wunderground v.1.15,2013-10-28 09:10:00,
2013-10-28 04:20:00,61.7,60.0,29.95,East,90,4.0,20.0,94,0.00,,,0.00,Wunderground v.1.15,2013-10-28 09:20:00,
2013-10-28 04:30:00,61.7,60.0,29.95,East,90,3.0,20.0,94,0.00,,,0.00,Wunderground v.1.15,2013-10-28 09:30:00,
2013-10-28 04:40:00,61.7,60.0,29.95,East,90,3.0,3.0,94,0.00,,,0.00,Wunderground v.1.15,2013-10-28 09:40:00,
2013-10-28 04:50:00,61.8,60.1,29.95,East,90,0.0,20.0,94,0.00,,,0.00,Wunderground v.1.15,2013-10-28 09:50:00,
2013-10-28 05:00:00,61.9,60.2,29.95,East,90,3.0,20.0,94,0.00,,,0.00,Wunderground v.1.15,2013-10-28 10:00:00,
2013-10-28 05:10:00,61.9,60.2,29.95,East,90,3.0,3.0,94,0.00,,,0.00,Wunderground v.1.15,2013-10-28 10:10:00,
2013-10-28 05:20:00,62.0,60.3,29.95,East,90,1.0,20.0,94,0.00,,,0.00,Wunderground v.1.15,2013-10-28 10:20:00,
2013-10-28 05:30:00,62.1,60.7,29.95,East,90,0.0,20.0,95,0.00,,,0.00,Wunderground v.1.15,2013-10-28 10:30:00,
2013-10-28 05:40:00,62.2,60.8,29.95,East,90,2.0,20.0,95,0.00,,,0.00,Wunderground v.1.15,2013-10-28 10:40:00,
2013-10-28 05:50:00,62.3,60.8,29.95,East,90,3.0,3.0,95,0.00,,,0.00,Wunderground v.1.15,2013-10-28 10:50:00,
2013-10-28 06:00:00,62.5,61.0,29.95,East,90,4.0,20.0,95,0.00,,,0.00,Wunderground v.1.15,2013-10-28 11:00:00,
2013-10-28 06:10:00,62.6,61.1,29.95,East,90,4.0,4.0,95,0.00,,,0.00,Wunderground v.1.15,2013-10-28 11:10:00,
2013-10-28 06:20:00,62.7,61.2,29.96,East,90,4.0,4.0,95,0.00,,,0.00,Wunderground v.1.15,2013-10-28 11:20:00,
2013-10-28 06:30:00,62.9,61.4,29.96,East,90,1.0,20.0,95,0.00,,,0.00,Wunderground v.1.15,2013-10-28 11:30:00,
2013-10-28 06:40:00,62.9,61.4,29.96,East,90,1.0,1.0,95,0.00,,,0.00,Wunderground v.1.15,2013-10-28 11:40:00,
2013-10-28 06:50:00,63.1,61.6,29.96,East,90,0.0,20.0,95,0.00,,,0.00,Wunderground v.1.15,2013-10-28 11:50:00,
2013-10-28 07:00:00,63.2,61.7,29.97,East,90,0.0,20.0,95,0.00,,,0.00,Wunderground v.1.15,2013-10-28 12:00:00,
2013-10-28 07:10:00,63.4,61.9,29.96,East,90,1.0,1.0,95,0.00,,,0.00,Wunderground v.1.15,2013-10-28 12:10:00,
2013-10-28 07:20:00,63.6,62.1,29.96,East,90,0.0,20.0,95,0.00,,,0.00,Wunderground v.1.15,2013-10-28 12:20:00,
2013-10-28 07:30:00,63.6,62.4,29.96,East,90,1.0,20.0,96,0.00,,,0.00,Wunderground v.1.15,2013-10-28 12:30:00,
2013-10-28 07:40:00,63.7,62.5,29.97,East,90,2.0,2.0,96,0.00,,,0.00,Wunderground v.1.15,2013-10-28 12:40:00,
2013-10-28 07:50:00,63.8,62.6,29.97,East,90,2.0,20.0,96,0.00,,,0.00,Wunderground v.1.15,2013-10-28 12:50:00,
2013-10-28 08:00:00,63.9,62.7,29.97,East,90,1.0,20.0,96,0.00,,,0.00,Wunderground v.1.15,2013-10-28 13:00:00,
2013-10-28 08:10:00,64.1,62.9,29.97,East,90,4.0,4.0,96,0.00,,,0.00,Wunderground v.1.15,2013-10-28 13:10:00,
2013-10-28 08:20:00,64.2,63.0,29.98,East,90,4.0,4.0,96,0.00,,,0.00,Wunderground v.1.15,2013-10-28 13:20:00,
2013-10-28 08:30:00,64.4,63.2,29.98,East,90,2.0,2.0,96,0.00,,,0.00,Wunderground v.1.15,2013-10-28 13:30:00,
2013-10-28 08:40:00,64.6,63.4,29.98,East,90,2.0,20.0,96,0.00,,,0.00,Wunderground v.1.15,2013-10-28 13:40:00,
2013-10-28 08:50:00,64.9,63.7,29.99,East,98,4.0,20.0,96,0.00,,,0.00,Wunderground v.1.15,2013-10-28 13:50:00,
2013-10-28 09:00:00,65.2,64.0,29.99,East,98,4.0,20.0,96,0.00,,,0.00,Wunderground v.1.15,2013-10-28 14:00:00,
2013-10-28 09:10:00,65.4,63.9,29.99,East,98,4.0,20.0,95,0.00,,,0.00,Wunderground v.1.15,2013-10-28 14:10:00,
2013-10-28 09:20:00,65.7,64.2,30.00,East,98,4.0,20.0,95,0.00,,,0.00,Wunderground v.1.15,2013-10-28 14:20:00,
2013-10-28 09:30:00,66.1,64.6,30.00,ESE,103,6.0,20.0,95,0.00,,,0.00,Wunderground v.1.15,2013-10-28 14:30:00,
2013-10-28 09:40:00,66.3,64.5,30.01,ESE,103,5.0,20.0,94,0.00,,,0.00,Wunderground v.1.15,2013-10-28 14:40:00,
2013-10-28 09:50:00,66.7,64.9,30.01,ESE,103,5.0,20.0,94,0.00,,,0.00,Wunderground v.1.15,2013-10-28 14:50:00,
2013-10-28 10:00:00,67.0,65.2,30.01,ESE,117,7.0,20.0,94,0.00,,,0.00,Wunderground v.1.15,2013-10-28 15:00:00,
2013-10-28 10:10:00,67.4,65.3,30.01,ESE,122,6.0,20.0,93,0.00,,,0.00,Wunderground v.1.15,2013-10-28 15:10:00,
2013-10-28 10:20:00,67.7,65.6,30.01,SE,142,7.0,20.0,93,0.00,,,0.00,Wunderground v.1.15,2013-10-28 15:20:00,
2013-10-28 10:30:00,68.0,65.9,30.01,SE,141,7.0,20.0,93,0.00,,,0.00,Wunderground v.1.15,2013-10-28 15:30:00,
2013-10-28 10:40:00,68.3,65.9,30.01,SE,142,7.0,20.0,92,0.00,,,0.00,Wunderground v.1.15,2013-10-28 15:40:00,
2013-10-28 10:50:00,68.6,65.9,30.00,SE,144,8.0,20.0,91,0.00,,,0.00,Wunderground v.1.15,2013-10-28 15:50:00,
2013-10-28 11:00:00,69.0,66.3,30.00,SE,141,8.0,8.0,91,0.00,,,0.00,Wunderground v.1.15,2013-10-28 16:00:00,
2013-10-28 11:10:00,69.3,66.2,30.00,SE,136,8.0,20.0,90,0.00,,,0.00,Wunderground v.1.15,2013-10-28 16:10:00,
2013-10-28 11:20:00,69.7,66.6,29.99,SE,140,9.0,20.0,90,0.00,,,0.00,Wunderground v.1.15,2013-10-28 16:20:00,
2013-10-28 11:30:00,70.1,66.7,29.99,SE,130,9.0,9.0,89,0.00,,,0.00,Wunderground v.1.15,2013-10-28 16:30:00,
2013-10-28 11:40:00,70.4,67.0,30.00,SE,143,10.0,20.0,89,0.00,,,0.00,Wunderground v.1.15,2013-10-28 16:40:00,
2013-10-28 11:50:00,70.8,67.1,29.99,SE,146,9.0,20.0,88,0.00,,,0.00,Wunderground v.1.15,2013-10-28 16:50:00,
2013-10-28 12:00:00,71.6,67.2,29.99,SSE,150,10.0,10.0,86,0.00,,,0.00,Wunderground v.1.15,2013-10-28 17:00:00,
2013-10-28 12:10:00,72.6,67.8,29.99,SE,129,10.0,20.0,85,0.00,,,0.00,Wunderground v.1.15,2013-10-28 17:10:00,
2013-10-28 12:20:00,72.9,67.1,29.98,SSE,159,12.0,12.0,82,0.00,,,0.00,Wunderground v.1.15,2013-10-28 17:20:00,
2013-10-28 12:30:00,72.9,66.7,29.98,SSE,159,10.0,10.0,81,0.00,,,0.00,Wunderground v.1.15,2013-10-28 17:30:00,
2013-10-28 12:40:00,73.3,67.1,29.98,SSE,166,10.0,10.0,81,0.00,,,0.00,Wunderground v.1.15,2013-10-28 17:40:00,
2013-10-28 12:50:00,73.4,66.5,29.97,SSE,148,10.0,10.0,79,0.00,,,0.00,Wunderground v.1.15,2013-10-28 17:50:00,
2013-10-28 13:00:00,73.7,66.8,29.97,SSE,163,10.0,10.0,79,0.00,,,0.00,Wunderground v.1.15,2013-10-28 18:00:00,
2013-10-28 13:10:00,74.3,67.0,29.97,SSE,167,9.0,20.0,78,0.00,,,0.00,Wunderground v.1.15,2013-10-28 18:10:00,
2013-10-28 13:20:00,74.8,66.7,29.96,South,175,12.0,20.0,76,0.00,,,0.00,Wunderground v.1.15,2013-10-28 18:20:00,
2013-10-28 13:30:00,75.6,66.3,29.96,SSE,158,12.0,20.0,73,0.00,,,0.00,Wunderground v.1.15,2013-10-28 18:30:00,
2013-10-28 13:40:00,76.2,66.5,29.95,South,171,12.0,12.0,72,0.00,,,0.00,Wunderground v.1.15,2013-10-28 18:40:00,
2013-10-28 13:50:00,76.2,66.1,29.94,SSE,164,12.0,12.0,71,0.00,,,0.00,Wunderground v.1.15,2013-10-28 18:50:00,
2013-10-28 14:00:00,76.0,66.3,29.94,South,171,14.0,14.0,72,0.00,,,0.00,Wunderground v.1.15,2013-10-28 19:00:00,
2013-10-28 14:10:00,76.2,65.7,29.93,South,176,15.0,15.0,70,0.00,,,0.00,Wunderground v.1.15,2013-10-28 19:10:00,
2013-10-28 14:20:00,76.6,66.5,29.93,South,171,14.0,20.0,71,0.00,,,0.00,Wunderground v.1.15,2013-10-28 19:20:00,
2013-10-28 14:30:00,76.9,66.4,29.92,SSE,154,13.0,20.0,70,0.00,,,0.00,Wunderground v.1.15,2013-10-28 19:30:00,
2013-10-28 14:40:00,77.0,66.0,29.92,SE,144,16.0,20.0,69,0.00,,,0.00,Wunderground v.1.15,2013-10-28 19:40:00,
2013-10-28 14:50:00,77.3,66.3,29.91,SSE,159,13.0,20.0,69,0.00,,,0.00,Wunderground v.1.15,2013-10-28 19:50:00,
2013-10-28 15:00:00,77.0,66.0,29.91,SSE,163,14.0,20.0,69,0.00,,,0.00,Wunderground v.1.15,2013-10-28 20:00:00,
2013-10-28 15:10:00,76.8,66.3,29.90,SSE,154,14.0,14.0,70,0.00,,,0.00,Wunderground v.1.15,2013-10-28 20:10:00,
2013-10-28 15:20:00,77.3,66.3,29.90,SSE,159,13.0,13.0,69,0.00,,,0.00,Wunderground v.1.15,2013-10-28 20:20:00,
2013-10-28 15:30:00,76.9,66.0,29.89,SE,135,14.0,20.0,69,0.00,,,0.00,Wunderground v.1.15,2013-10-28 20:30:00,
2013-10-28 15:40:00,77.3,66.7,29.89,SSE,156,14.0,14.0,70,0.00,,,0.00,Wunderground v.1.15,2013-10-28 20:40:00,
2013-10-28 15:50:00,77.7,66.3,29.89,SSE,160,13.0,20.0,68,0.00,,,0.00,Wunderground v.1.15,2013-10-28 20:50:00,
2013-10-28 16:00:00,78.0,66.6,29.89,SE,143,15.0,15.0,68,0.00,,,0.00,Wunderground v.1.15,2013-10-28 21:00:00,
2013-10-28 16:10:00,78.4,66.5,29.89,South,169,13.0,20.0,67,0.00,,,0.00,Wunderground v.1.15,2013-10-28 21:10:00,
2013-10-28 16:20:00,78.0,66.2,29.89,SSE,149,13.0,20.0,67,0.00,,,0.00,Wunderground v.1.15,2013-10-28 21:20:00,
2013-10-28 16:30:00,78.5,66.2,29.89,SSE,158,12.0,12.0,66,0.00,,,0.00,Wunderground v.1.15,2013-10-28 21:30:00,
2013-10-28 16:40:00,78.3,66.4,29.89,SSE,148,11.0,11.0,67,0.00,,,0.00,Wunderground v.1.15,2013-10-28 21:40:00,
2013-10-28 16:50:00,78.4,66.1,29.89,SE,143,11.0,20.0,66,0.00,,,0.00,Wunderground v.1.15,2013-10-28 21:50:00,
2013-10-28 17:00:00,78.7,66.4,29.89,South,180,14.0,14.0,66,0.00,,,0.00,Wunderground v.1.15,2013-10-28 22:00:00,
2013-10-28 17:10:00,78.3,66.0,29.89,SSE,156,12.0,12.0,66,0.00,,,0.00,Wunderground v.1.15,2013-10-28 22:10:00,
2013-10-28 17:20:00,78.3,66.4,29.89,SSE,148,12.0,12.0,67,0.00,,,0.00,Wunderground v.1.15,2013-10-28 22:20:00,
2013-10-28 17:30:00,77.9,66.5,29.89,SSE,150,12.0,12.0,68,0.00,,,0.00,Wunderground v.1.15,2013-10-28 22:30:00,
2013-10-28 17:40:00,77.6,66.6,29.89,SSE,148,12.0,12.0,69,0.00,,,0.00,Wunderground v.1.15,2013-10-28 22:40:00,
2013-10-28 17:50:00,77.4,66.4,29.89,SE,142,12.0,12.0,69,0.00,,,0.00,Wunderground v.1.15,2013-10-28 22:50:00,
2013-10-28 18:00:00,77.0,66.0,29.89,SSE,151,12.0,12.0,69,0.00,,,0.00,Wunderground v.1.15,2013-10-28 23:00:00,
2013-10-28 18:10:00,76.6,66.1,29.89,SSE,152,11.0,11.0,70,0.00,,,0.00,Wunderground v.1.15,2013-10-28 23:10:00,
2013-10-28 18:20:00,76.2,66.1,29.89,SE,146,10.0,20.0,71,0.00,,,0.00,Wunderground v.1.15,2013-10-28 23:20:00,
2013-10-28 18:30:00,76.0,65.9,29.89,SE,141,9.0,20.0,71,0.00,,,0.00,Wunderground v.1.15,2013-10-28 23:30:00,
2013-10-28 18:40:00,75.7,66.0,29.89,SSE,157,8.0,8.0,72,0.00,,,0.00,Wunderground v.1.15,2013-10-28 23:40:00,
2013-10-28 18:50:00,75.5,65.8,29.89,SSE,148,9.0,20.0,72,0.00,,,0.00,Wunderground v.1.15,2013-10-28 23:50:00,
2013-10-28 19:00:00,75.1,65.9,29.90,SE,146,8.0,8.0,73,0.00,,,0.00,Wunderground v.1.15,2013-10-29 00:00:00,
2013-10-28 19:10:00,74.5,65.7,29.90,SSE,150,6.0,20.0,74,0.00,,,0.00,Wunderground v.1.15,2013-10-29 00:10:00,
2013-10-28 19:20:00,74.3,65.9,29.90,SSE,155,7.0,20.0,75,0.00,,,0.00,Wunderground v.1.15,2013-10-29 00:20:00,
2013-10-28 19:30:00,74.4,66.0,29.91,SSE,149,8.0,8.0,75,0.00,,,0.00,Wunderground v.1.15,2013-10-29 00:30:00,
2013-10-28 19:40:00,74.4,66.0,29.91,SSE,153,7.0,20.0,75,0.00,,,0.00,Wunderground v.1.15,2013-10-29 00:40:00,
2013-10-28 19:50:00,74.6,65.8,29.91,SSE,148,9.0,20.0,74,0.00,,,0.00,Wunderground v.1.15,2013-10-29 00:50:00,
2013-10-28 20:00:00,74.4,65.6,29.92,SE,146,8.0,20.0,74,0.00,,,0.00,Wunderground v.1.15,2013-10-29 01:00:00,
2013-10-28 20:10:00,74.4,66.0,29.92,SE,137,8.0,8.0,75,0.00,,,0.00,Wunderground v.1.15,2013-10-29 01:10:00,
2013-10-28 20:20:00,74.1,65.7,29.93,SE,140,8.0,8.0,75,0.00,,,0.00,Wunderground v.1.15,2013-10-29 01:20:00,
2013-10-28 20:30:00,73.9,65.9,29.93,SE,138,10.0,10.0,76,0.00,,,0.00,Wunderground v.1.15,2013-10-29 01:30:00,
2013-10-28 20:40:00,73.4,65.7,29.93,SE,137,7.0,20.0,77,0.00,,,0.00,Wunderground v.1.15,2013-10-29 01:40:00,
2013-10-28 20:50:00,73.0,65.7,29.93,SE,143,8.0,8.0,78,0.00,,,0.00,Wunderground v.1.15,2013-10-29 01:50:00,
2013-10-28 21:00:00,72.7,65.8,29.94,SE,135,6.0,6.0,79,0.00,,,0.00,Wunderground v.1.15,2013-10-29 02:00:00,
2013-10-28 21:10:00,72.4,66.2,29.94,SE,138,5.0,20.0,81,0.00,,,0.00,Wunderground v.1.15,2013-10-29 02:10:00,
2013-10-28 21:20:00,72.4,66.2,29.94,SE,142,6.0,20.0,81,0.00,,,0.00,Wunderground v.1.15,2013-10-29 02:20:00,
2013-10-28 21:30:00,72.3,66.5,29.94,SE,142,5.0,5.0,82,0.00,,,0.00,Wunderground v.1.15,2013-10-29 02:30:00,
2013-10-28 21:40:00,72.2,66.4,29.94,SE,146,5.0,20.0,82,0.00,,,0.00,Wunderground v.1.15,2013-10-29 02:40:00,
2013-10-28 21:50:00,72.1,66.6,29.94,SE,146,4.0,20.0,83,0.00,,,0.00,Wunderground v.1.15,2013-10-29 02:50:00,
2013-10-28 22:00:00,71.9,66.5,29.94,SE,146,6.0,20.0,83,0.00,,,0.00,Wunderground v.1.15,2013-10-29 03:00:00,
2013-10-28 22:10:00,71.6,66.5,29.94,SE,146,5.0,5.0,84,0.00,,,0.00,Wunderground v.1.15,2013-10-29 03:10:00,
2013-10-28 22:20:00,71.2,66.1,29.94,SE,146,4.0,20.0,84,0.00,,,0.00,Wunderground v.1.15,2013-10-29 03:20:00,
2013-10-28 22:30:00,71.1,66.4,29.94,SE,146,4.0,20.0,85,0.00,,,0.00,Wunderground v.1.15,2013-10-29 03:30:00,
2013-10-28 22:40:00,71.1,66.4,29.94,SE,146,5.0,20.0,85,0.00,,,0.00,Wunderground v.1.15,2013-10-29 03:40:00,
2013-10-28 22:50:00,70.9,66.2,29.94,SE,145,6.0,20.0,85,0.00,,,0.00,Wunderground v.1.15,2013-10-29 03:50:00,
2013-10-28 23:00:00,70.6,66.2,29.95,SE,145,6.0,20.0,86,0.00,,,0.00,Wunderground v.1.15,2013-10-29 04:00:00,
2013-10-28 23:10:00,70.4,66.0,29.95,SE,144,6.0,20.0,86,0.00,,,0.00,Wunderground v.1.15,2013-10-29 04:10:00,
2013-10-28 23:20:00,70.2,66.1,29.95,SE,144,6.0,20.0,87,0.00,,,0.00,Wunderground v.1.15,2013-10-29 04:20:00,
2013-10-28 23:30:00,70.1,66.0,29.95,SE,142,7.0,7.0,87,0.00,,,0.00,Wunderground v.1.15,2013-10-29 04:30:00,
2013-10-28 23:40:00,70.0,65.6,29.94,SE,142,7.0,20.0,86,0.00,,,0.00,Wunderground v.1.15,2013-10-29 04:40:00,
2013-10-28 23:50:00,70.0,65.6,29.95,SE,142,7.0,20.0,86,0.00,,,0.00,Wunderground v.1.15,2013-10-29 04:50:00,